Weather History for Farmville, VA

Change the Weather History Date:

Wednesday, January 2, 2013

  Actual Average Record
Temperature  
Mean Temperature 40 °F -  
Max Temperature 44 °F 48 °F 80 °F (1952)
Min Temperature 37 °F 27 °F 10 °F (1957)
Degree Days  
Heating Degree Days 24    
Moisture  
Dew Point 35 °F    
Average Humidity 81    
Maximum Humidity 100    
Minimum Humidity 57    
Precipitation  
Precipitation 0.06 in - - ()
Sea Level Pressure  
Sea Level Pressure 30.07 in    
Wind  
Wind Speed 3 mph (NE)    
Max Wind Speed 8 mph    
Max Gust Speed -    
Visibility 8 miles    
Events Rain    
Averages and records for this station are not official NWS values.
T = Trace of Precipitation, MM = Missing Value Source: NWS Daily Summary

Daily Weather History Graph

Daily Weather History Graph

Search for Another Location

Airport:

Trip Planner

Search our weather history database for the weather conditions in past years. The results will help you decide how hot, cold, wet, or windy it might be!

Date:

Astronomy

Jan. 02, 2013 Rise Set
Actual Time 7:28 AM EST 5:07 PM EST
Civil Twilight 6:59 AM EST 5:36 PM EST
Nautical Twilight 6:26 AM EST 6:09 PM EST
Astronomical Twilight 5:54 AM EST 6:41 PM EST
Moon 10:30 PM EST (1/2) 10:15 AM EST (1/2)
Length of Visible Light 10h 37m
Length of Day
9h 39m
Waning Gibbous, 75% of the Moon is Illuminated
Jan 2
Waning Gibbous
Jan 4
Last Quarter
Jan 11
New
Jan 18
First Quarter
Jan 26
Full

Hourly Weather History & Observations

Time (EST) Temp. Windchill Dew Point Humidity Pressure Visibility Wind Dir Wind Speed Gust Speed Precip Events Conditions
12:15 AM 42.8 °F 41.1 °F 42.8 °F 100% 29.97 in 4.0 mi North 3.5 mph - 0.03 in Rain Light Rain
12:35 AM 42.8 °F 40.1 °F 42.8 °F 100% 29.95 in 4.0 mi NNE 4.6 mph - 0.06 in Rain Rain
12:55 AM 42.8 °F 41.1 °F 42.8 °F 100% 29.95 in 5.0 mi East 3.5 mph - 0.01 in Rain Rain
1:15 AM 42.8 °F 38.0 °F 39.2 °F 87% 29.95 in 7.0 mi North 8.1 mph - 0.01 in   Overcast
1:35 AM 41.0 °F 36.4 °F 39.2 °F 93% 29.97 in 7.0 mi NNE 6.9 mph - 0.01 in Rain Light Rain
1:55 AM 39.2 °F 34.2 °F 37.4 °F 93% 29.97 in 7.0 mi NE 6.9 mph - N/A Rain Rain
2:15 AM 39.2 °F 35.9 °F 37.4 °F 93% 29.98 in 5.0 mi NNE 4.6 mph - N/A Rain Rain
2:35 AM 39.2 °F 35.0 °F 37.4 °F 93% 29.99 in 5.0 mi North 5.8 mph - 0.02 in Rain Light Rain
2:55 AM 39.2 °F 34.2 °F 37.4 °F 93% 29.99 in 5.0 mi NNE 6.9 mph - 0.01 in Rain Light Rain
3:15 AM 39.2 °F 34.2 °F 37.4 °F 93% 29.99 in 5.0 mi NNE 6.9 mph - 0.01 in Rain Light Rain
3:35 AM 39.2 °F 34.2 °F 37.4 °F 93% 29.98 in 7.0 mi NNE 6.9 mph - 0.02 in Rain Light Rain
4:15 AM 39.2 °F 35.0 °F 37.4 °F 93% 29.98 in 7.0 mi NNE 5.8 mph - N/A   Overcast
4:35 AM 39.2 °F 35.9 °F 37.4 °F 93% 29.97 in 7.0 mi NE 4.6 mph - N/A   Overcast
4:55 AM 39.2 °F 37.0 °F 37.4 °F 93% 29.98 in 7.0 mi NE 3.5 mph - N/A   Overcast
5:15 AM 39.2 °F 37.0 °F 37.4 °F 93% 29.97 in 10.0 mi East 3.5 mph - N/A   Overcast
5:35 AM 39.2 °F - 35.6 °F 87% 30.00 in 10.0 mi Calm Calm - N/A   Overcast
5:55 AM 37.4 °F - 35.6 °F 93% 30.00 in 7.0 mi Calm Calm - N/A   Overcast
6:15 AM 39.2 °F - 35.6 °F 87% 30.00 in 7.0 mi Calm Calm - N/A   Overcast
6:35 AM 37.4 °F 34.9 °F 35.6 °F 93% 30.01 in 7.0 mi North 3.5 mph - N/A   Overcast
6:55 AM 37.4 °F 33.8 °F 35.6 °F 93% 30.03 in 7.0 mi North 4.6 mph - N/A   Overcast
7:15 AM 37.4 °F - 35.6 °F 93% 30.06 in 7.0 mi Calm Calm - N/A   Overcast
7:35 AM 37.4 °F 34.9 °F 35.6 °F 93% 30.05 in 5.0 mi North 3.5 mph - N/A   Overcast
7:55 AM 37.4 °F - 35.6 °F 93% 30.07 in 4.0 mi Calm Calm - N/A   Overcast
8:15 AM 39.2 °F - 37.4 °F 93% 30.07 in 5.0 mi Calm Calm - N/A   Overcast
8:35 AM 39.2 °F - 37.4 °F 93% 30.08 in 5.0 mi Calm Calm - N/A   Overcast
8:55 AM 39.2 °F 37.0 °F 37.4 °F 93% 30.08 in 7.0 mi NNE 3.5 mph - N/A   Mostly Cloudy
9:15 AM 39.2 °F - 35.6 °F 87% 30.09 in 10.0 mi Calm Calm - N/A   Scattered Clouds
9:35 AM 39.2 °F - 35.6 °F 87% 30.09 in 10.0 mi Calm Calm - N/A   Scattered Clouds
9:55 AM 41.0 °F 38.0 °F 35.6 °F 81% 30.10 in 10.0 mi East 4.6 mph - N/A   Scattered Clouds
10:15 AM 42.8 °F 39.3 °F 32.0 °F 66% 30.10 in 10.0 mi East 5.8 mph - N/A   Mostly Cloudy
10:35 AM 42.8 °F 40.1 °F 32.0 °F 66% 30.11 in 10.0 mi East 4.6 mph - N/A   Overcast
10:55 AM 42.8 °F 40.1 °F 32.0 °F 66% 30.10 in 10.0 mi East 4.6 mph - N/A   Overcast
11:15 AM 41.0 °F 39.0 °F 32.0 °F 70% 30.10 in 10.0 mi ESE 3.5 mph - N/A   Overcast
11:35 AM 42.8 °F - 32.0 °F 66% 30.09 in 10.0 mi Calm Calm - N/A   Overcast
11:55 AM 41.0 °F - 30.2 °F 65% 30.08 in 10.0 mi Calm Calm - N/A   Overcast
12:15 PM 42.8 °F 41.1 °F 32.0 °F 66% 30.08 in 10.0 mi South 3.5 mph - N/A   Overcast
12:35 PM 42.8 °F - 32.0 °F 66% 30.07 in 10.0 mi Calm Calm - N/A   Overcast
12:55 PM 42.8 °F - 32.0 °F 66% 30.06 in 10.0 mi Calm Calm - N/A   Mostly Cloudy
1:15 PM 42.8 °F 40.1 °F 33.8 °F 70% 30.06 in 10.0 mi SSE 4.6 mph - N/A   Overcast
1:35 PM 42.8 °F - 33.8 °F 70% 30.06 in 10.0 mi Calm Calm - N/A   Overcast
1:55 PM 42.8 °F 41.1 °F 32.0 °F 66% 30.05 in 10.0 mi SSE 3.5 mph - N/A   Overcast
2:15 PM 42.8 °F - 32.0 °F 66% 30.05 in 10.0 mi Calm Calm - N/A   Mostly Cloudy
2:35 PM 44.6 °F - 32.0 °F 61% 30.05 in 10.0 mi Calm Calm - N/A   Scattered Clouds
2:55 PM 44.6 °F - 30.2 °F 57% 30.07 in 10.0 mi Calm Calm - N/A   Mostly Cloudy
3:15 PM 44.6 °F 43.1 °F 33.8 °F 66% 30.06 in 10.0 mi ESE 3.5 mph - N/A   Overcast
3:35 PM 42.8 °F 41.1 °F 33.8 °F 70% 30.08 in 10.0 mi SE 3.5 mph - N/A   Overcast
3:55 PM 44.6 °F 43.1 °F 33.8 °F 66% 30.08 in 10.0 mi SE 3.5 mph - N/A   Mostly Cloudy
4:15 PM 44.6 °F - 33.8 °F 66% 30.10 in 10.0 mi Calm Calm - N/A   Scattered Clouds
4:35 PM 42.8 °F - 33.8 °F 70% 30.10 in 10.0 mi Calm Calm - N/A   Scattered Clouds
4:55 PM 42.8 °F - 33.8 °F 70% 30.11 in 10.0 mi Calm Calm - N/A   Clear
5:15 PM 42.8 °F - 33.8 °F 70% 30.11 in 10.0 mi Calm Calm - N/A   Clear
5:35 PM 41.0 °F - 32.0 °F 70% 30.11 in 10.0 mi Calm Calm - N/A   Clear
5:55 PM 39.2 °F - 33.8 °F 81% 30.12 in 10.0 mi Calm Calm - N/A   Clear
6:15 PM 39.2 °F - 33.8 °F 81% 30.12 in 10.0 mi Calm Calm - N/A   Clear
6:35 PM 39.2 °F - 33.8 °F 81% 30.12 in 10.0 mi Calm Calm - N/A   Clear
6:55 PM 39.2 °F - 35.6 °F 87% 30.13 in 10.0 mi Calm Calm - N/A   Clear
7:55 PM 39.2 °F - 32.0 °F 75% 30.14 in 10.0 mi Calm Calm - N/A   Mostly Cloudy
8:15 PM 39.2 °F - 33.8 °F 81% 30.15 in 10.0 mi Calm Calm - N/A   Mostly Cloudy
8:35 PM 39.2 °F - 33.8 °F 81% 30.16 in 10.0 mi Calm Calm - N/A   Scattered Clouds
8:55 PM 37.4 °F - 35.6 °F 93% 30.17 in 10.0 mi Calm Calm - N/A   Overcast
9:15 PM 39.2 °F - 35.6 °F 87% 30.16 in 10.0 mi Calm Calm - N/A   Overcast
9:35 PM 39.2 °F - 35.6 °F 87% 30.17 in 7.0 mi Calm Calm - N/A   Overcast
9:55 PM 39.2 °F 35.9 °F 35.6 °F 87% 30.16 in 10.0 mi NNE 4.6 mph - N/A   Overcast
10:15 PM 37.4 °F 32.8 °F 35.6 °F 93% 30.17 in 7.0 mi NNE 5.8 mph - N/A   Overcast
10:35 PM 37.4 °F 33.8 °F 35.6 °F 93% 30.17 in 7.0 mi NNE 4.6 mph - N/A   Overcast
10:55 PM 39.2 °F 35.0 °F 33.8 °F 81% 30.17 in 10.0 mi ENE 5.8 mph - N/A   Overcast
11:15 PM 39.2 °F 35.0 °F 28.4 °F 65% 30.18 in 10.0 mi NE 5.8 mph - N/A   Overcast
11:35 PM 39.2 °F 35.9 °F 28.4 °F 65% 30.19 in 10.0 mi NE 4.6 mph - N/A   Overcast
11:55 PM 37.4 °F 34.9 °F 28.4 °F 70% 30.19 in 10.0 mi NE 3.5 mph - N/A   Overcast